Time,TemperatureF,DewpointF,PressureIn,WindDirection,WindDirectionDegrees,WindSpeedMPH,WindSpeedGustMPH,Humidity,HourlyPrecipIn,Conditions,Clouds,dailyrainin,SolarRadiationWatts/m^2,SoftwareType,DateUTC
2013-01-26 00:00:00,34.4,32.6,30.00,North,11,0.0,0.0,93,0.01,,SKC,0.01,0.00,VWS V14.01,2013-01-26 07:00:00,
2013-01-26 00:07:00,34.4,32.6,30.01,North,11,0.0,0.0,93,0.01,,SKC,0.00,0.00,VWS V14.01,2013-01-26 07:07:00,
2013-01-26 00:13:00,34.4,32.6,30.01,North,10,0.0,0.0,93,0.01,,SKC,0.00,0.00,VWS V14.01,2013-01-26 07:13:00,
2013-01-26 00:15:00,34.4,32.6,30.01,North,11,0.0,0.0,93,0.01,,SKC,0.00,0.00,VWS V14.01,2013-01-26 07:15:00,
2013-01-26 00:19:00,34.3,32.5,30.01,North,10,0.0,0.0,93,0.00,,SKC,0.00,0.00,VWS V14.01,2013-01-26 07:19:00,
2013-01-26 00:25:00,34.3,32.5,30.01,North,11,0.0,0.0,93,0.00,,SKC,0.00,0.00,VWS V14.01,2013-01-26 07:25:00,
2013-01-26 00:30:00,34.2,32.4,30.01,North,11,0.0,0.0,93,0.00,,SKC,0.00,0.00,VWS V14.01,2013-01-26 07:30:00,
2013-01-26 00:31:00,34.2,32.4,30.01,North,11,0.0,0.0,93,0.00,,SKC,0.00,0.00,VWS V14.01,2013-01-26 07:31:00,
2013-01-26 00:38:00,34.1,32.3,30.01,North,11,0.0,0.0,93,0.00,,SKC,0.00,0.00,VWS V14.01,2013-01-26 07:38:00,
2013-01-26 00:44:00,34.1,32.3,30.01,North,10,0.0,0.0,93,0.00,,SKC,0.00,0.00,VWS V14.01,2013-01-26 07:44:00,
2013-01-26 00:45:00,34.0,32.2,30.01,North,11,0.0,0.0,93,0.00,,SKC,0.00,0.00,VWS V14.01,2013-01-26 07:45:00,
2013-01-26 00:49:00,34.0,32.2,30.01,North,11,0.0,0.0,93,0.00,,SKC,0.00,0.00,VWS V14.01,2013-01-26 07:49:00,
2013-01-26 00:55:00,33.9,32.1,30.01,North,10,0.0,0.0,93,0.00,,SKC,0.00,0.00,VWS V14.01,2013-01-26 07:55:00,
2013-01-26 01:00:00,33.9,32.1,30.01,North,11,0.0,0.0,93,0.00,,SKC,0.00,0.00,VWS V14.01,2013-01-26 08:00:00,
2013-01-26 01:06:00,33.9,32.1,30.00,North,11,0.0,0.0,93,0.00,,SKC,0.00,0.00,VWS V14.01,2013-01-26 08:06:00,
2013-01-26 01:12:00,33.9,32.1,29.99,North,10,0.0,0.0,93,0.00,,SKC,0.00,0.00,VWS V14.01,2013-01-26 08:12:00,
2013-01-26 01:15:00,33.9,32.1,29.99,North,11,0.0,0.0,93,0.00,,SKC,0.00,0.00,VWS V14.01,2013-01-26 08:15:00,
2013-01-26 01:18:00,33.9,32.1,29.99,North,11,0.0,0.0,93,0.00,,SKC,0.00,0.00,VWS V14.01,2013-01-26 08:18:00,
2013-01-26 01:24:00,33.9,32.1,29.99,North,10,0.0,0.0,93,0.00,,SKC,0.00,0.00,VWS V14.01,2013-01-26 08:24:00,
2013-01-26 01:30:00,33.8,32.0,29.99,North,11,0.0,0.0,93,0.00,,SKC,0.00,0.00,VWS V14.01,2013-01-26 08:30:00,
2013-01-26 01:31:00,33.9,32.1,29.99,North,10,0.0,0.0,93,0.00,,SKC,0.00,0.00,VWS V14.01,2013-01-26 08:31:00,
2013-01-26 01:37:00,33.8,32.0,29.98,North,11,0.0,0.0,93,0.00,,SKC,0.00,0.00,VWS V14.01,2013-01-26 08:37:00,
2013-01-26 01:43:00,33.8,32.0,29.98,North,10,0.0,0.0,93,0.00,,SKC,0.00,0.00,VWS V14.01,2013-01-26 08:43:00,
2013-01-26 01:45:00,33.8,32.0,29.98,North,10,0.0,0.0,93,0.00,,SKC,0.00,0.00,VWS V14.01,2013-01-26 08:45:00,
2013-01-26 01:48:00,33.8,32.3,29.98,North,11,0.0,3.0,94,0.00,,SKC,0.00,0.00,VWS V14.01,2013-01-26 08:48:00,
2013-01-26 01:55:00,33.8,32.3,29.98,North,10,1.0,3.0,94,0.00,,SKC,0.00,0.00,VWS V14.01,2013-01-26 08:55:00,
2013-01-26 02:00:00,33.8,32.3,29.99,North,11,2.0,3.0,94,0.00,,SKC,0.00,0.00,VWS V14.01,2013-01-26 09:00:00,
2013-01-26 02:06:00,33.7,32.2,29.99,North,11,0.0,5.0,94,0.00,,SKC,0.00,0.00,VWS V14.01,2013-01-26 09:06:00,
2013-01-26 02:12:00,33.7,32.2,29.99,North,10,2.0,5.0,94,0.00,,SKC,0.00,0.00,VWS V14.01,2013-01-26 09:12:00,
2013-01-26 02:15:00,33.7,32.2,29.99,North,10,2.0,5.0,94,0.00,,SKC,0.00,0.00,VWS V14.01,2013-01-26 09:15:00,
2013-01-26 02:18:00,33.7,32.2,29.99,North,11,1.0,4.0,94,0.00,,SKC,0.00,0.00,VWS V14.01,2013-01-26 09:18:00,
2013-01-26 02:24:00,33.7,32.2,29.99,NE,42,0.0,6.0,94,0.00,,SKC,0.00,0.00,VWS V14.01,2013-01-26 09:24:00,
2013-01-26 02:30:00,33.7,32.2,29.99,NNE,17,1.0,6.0,94,0.00,,SKC,0.00,0.00,VWS V14.01,2013-01-26 09:30:00,
2013-01-26 02:35:00,33.7,32.2,29.99,NNE,15,0.0,3.0,94,0.00,,SKC,0.00,0.00,VWS V14.01,2013-01-26 09:35:00,
2013-01-26 02:42:00,33.7,32.2,29.99,NNE,15,0.0,3.0,94,0.00,,SKC,0.00,0.00,VWS V14.01,2013-01-26 09:42:00,
2013-01-26 02:45:00,33.8,32.3,29.99,NNE,14,0.0,3.0,94,0.00,,SKC,0.00,0.00,VWS V14.01,2013-01-26 09:45:00,
2013-01-26 02:47:00,33.8,32.3,29.98,NNE,15,0.0,0.0,94,0.00,,SKC,0.00,0.00,VWS V14.01,2013-01-26 09:47:00,
2013-01-26 02:54:00,33.8,32.3,29.98,North,11,0.0,3.0,94,0.00,,SKC,0.00,0.00,VWS V14.01,2013-01-26 09:54:00,
2013-01-26 03:00:00,33.8,32.3,29.98,North,11,0.0,3.0,94,0.00,,SKC,0.00,0.00,VWS V14.01,2013-01-26 10:00:00,
2013-01-26 03:05:00,33.8,32.3,29.98,NNE,12,0.0,0.0,94,0.00,,SKC,0.00,0.00,VWS V14.01,2013-01-26 10:05:00,
2013-01-26 03:12:00,33.8,32.3,29.98,NNE,12,0.0,0.0,94,0.00,,SKC,0.00,0.00,VWS V14.01,2013-01-26 10:12:00,
2013-01-26 03:15:00,33.8,32.3,29.98,North,11,0.0,2.0,94,0.00,,SKC,0.00,0.00,VWS V14.01,2013-01-26 10:15:00,
2013-01-26 03:18:00,33.7,32.2,29.98,NNE,12,0.0,0.0,94,0.00,,SKC,0.00,0.00,VWS V14.01,2013-01-26 10:18:00,
2013-01-26 03:24:00,33.7,32.2,29.97,North,11,1.0,2.0,94,0.00,,SKC,0.00,0.00,VWS V14.01,2013-01-26 10:24:00,
2013-01-26 03:30:00,33.7,32.2,29.97,NNE,12,0.0,2.0,94,0.00,,SKC,0.00,0.00,VWS V14.01,2013-01-26 10:30:00,
2013-01-26 03:37:00,33.7,32.2,29.96,NNE,12,0.0,0.0,94,0.00,,SKC,0.00,0.00,VWS V14.01,2013-01-26 10:37:00,
2013-01-26 03:43:00,33.6,32.1,29.96,NNE,12,1.0,2.0,94,0.00,,SKC,0.00,0.00,VWS V14.01,2013-01-26 10:43:00,
2013-01-26 03:45:00,33.6,32.1,29.96,NNE,12,0.0,2.0,94,0.00,,SKC,0.00,0.00,VWS V14.01,2013-01-26 10:45:00,
2013-01-26 03:49:00,33.5,32.0,29.96,North,11,0.0,2.0,94,0.00,,SKC,0.00,0.00,VWS V14.01,2013-01-26 10:49:00,
2013-01-26 03:54:00,33.5,32.2,29.96,NNE,12,0.0,5.0,95,0.00,,SKC,0.00,0.00,VWS V14.01,2013-01-26 10:54:00,
2013-01-26 04:00:00,33.5,32.2,29.96,NNE,12,3.0,5.0,95,0.00,,SKC,0.00,0.00,VWS V14.01,2013-01-26 11:00:00,
2013-01-26 04:06:00,33.5,32.2,29.95,NNE,12,0.0,3.0,95,0.00,,SKC,0.00,0.00,VWS V14.01,2013-01-26 11:06:00,
2013-01-26 04:12:00,33.5,32.2,29.96,North,11,0.0,3.0,95,0.00,,SKC,0.00,0.00,VWS V14.01,2013-01-26 11:12:00,
2013-01-26 04:15:00,33.5,32.0,29.95,NNE,12,0.0,3.0,94,0.00,,SKC,0.00,0.00,VWS V14.01,2013-01-26 11:15:00,
2013-01-26 04:18:00,33.5,32.0,29.95,North,11,0.0,2.0,94,0.00,,SKC,0.00,0.00,VWS V14.01,2013-01-26 11:18:00,
2013-01-26 04:25:00,33.4,31.9,29.96,NNE,12,0.0,2.0,94,0.00,,SKC,0.00,0.00,VWS V14.01,2013-01-26 11:25:00,
2013-01-26 04:30:00,33.4,31.9,29.96,North,11,0.0,2.0,94,0.00,,SKC,0.00,0.00,VWS V14.01,2013-01-26 11:30:00,
2013-01-26 04:37:00,33.3,32.0,29.96,NNE,12,0.0,0.0,95,0.00,,SKC,0.00,0.00,VWS V14.01,2013-01-26 11:37:00,
2013-01-26 04:43:00,33.3,32.0,29.96,North,11,0.0,0.0,95,0.00,,SKC,0.00,0.00,VWS V14.01,2013-01-26 11:43:00,
2013-01-26 04:45:00,33.3,32.0,29.96,NNE,12,0.0,0.0,95,0.00,,SKC,0.00,0.00,VWS V14.01,2013-01-26 11:45:00,
2013-01-26 04:49:00,33.3,32.0,29.96,NNE,12,0.0,0.0,95,0.00,,SKC,0.00,0.00,VWS V14.01,2013-01-26 11:49:00,
2013-01-26 04:55:00,33.2,31.9,29.96,North,11,0.0,0.0,95,0.00,,SKC,0.00,0.00,VWS V14.01,2013-01-26 11:55:00,
2013-01-26 05:00:00,33.2,31.9,29.96,North,11,0.0,0.0,95,0.00,,SKC,0.00,0.00,VWS V14.01,2013-01-26 12:00:00,
2013-01-26 05:06:00,33.2,31.9,29.96,North,11,0.0,0.0,95,0.00,,SKC,0.00,0.00,VWS V14.01,2013-01-26 12:06:00,
2013-01-26 05:12:00,33.2,31.9,29.96,NNE,12,0.0,0.0,95,0.00,,SKC,0.00,0.00,VWS V14.01,2013-01-26 12:12:00,
2013-01-26 05:15:00,33.2,31.9,29.96,NNE,12,0.0,0.0,95,0.00,,SKC,0.00,0.00,VWS V14.01,2013-01-26 12:15:00,
2013-01-26 05:18:00,33.2,31.9,29.95,North,11,0.0,0.0,95,0.00,,SKC,0.00,0.00,VWS V14.01,2013-01-26 12:18:00,
2013-01-26 05:24:00,33.1,31.8,29.95,North,11,0.0,0.0,95,0.00,,SKC,0.00,0.00,VWS V14.01,2013-01-26 12:24:00,
2013-01-26 05:30:00,33.1,31.8,29.95,NNE,12,0.0,0.0,95,0.00,,SKC,0.00,0.00,VWS V14.01,2013-01-26 12:30:00,
2013-01-26 05:31:00,33.1,31.8,29.95,North,11,0.0,0.0,95,0.00,,SKC,0.00,0.00,VWS V14.01,2013-01-26 12:31:00,
2013-01-26 05:37:00,33.1,31.8,29.95,NNE,12,0.0,0.0,95,0.00,,SKC,0.00,0.00,VWS V14.01,2013-01-26 12:37:00,
2013-01-26 05:43:00,33.1,31.8,29.95,NNE,12,0.0,0.0,95,0.00,,SKC,0.00,0.00,VWS V14.01,2013-01-26 12:43:00,
2013-01-26 05:45:00,33.0,31.7,29.95,NNE,12,0.0,0.0,95,0.00,,SKC,0.00,0.00,VWS V14.01,2013-01-26 12:45:00,
2013-01-26 05:49:00,33.0,31.7,29.95,North,11,0.0,0.0,95,0.00,,SKC,0.00,0.00,VWS V14.01,2013-01-26 12:49:00,
2013-01-26 05:55:00,33.0,31.7,29.95,NNE,12,0.0,0.0,95,0.00,,SKC,0.00,0.00,VWS V14.01,2013-01-26 12:55:00,
2013-01-26 06:00:00,33.0,31.7,29.95,NNE,12,0.0,0.0,95,0.00,,SKC,0.00,0.00,VWS V14.01,2013-01-26 13:00:00,
2013-01-26 06:06:00,33.0,31.7,29.96,NNE,12,0.0,0.0,95,0.00,,SKC,0.00,0.00,VWS V14.01,2013-01-26 13:06:00,
2013-01-26 06:12:00,33.0,31.7,29.96,NNE,12,0.0,0.0,95,0.00,,SKC,0.00,0.00,VWS V14.01,2013-01-26 13:12:00,
2013-01-26 06:15:00,33.0,31.7,29.96,NNE,12,0.0,0.0,95,0.00,,SKC,0.00,0.00,VWS V14.01,2013-01-26 13:15:00,
2013-01-26 06:18:00,33.0,31.7,29.96,North,11,0.0,0.0,95,0.00,,SKC,0.00,0.00,VWS V14.01,2013-01-26 13:18:00,
2013-01-26 06:24:00,33.0,31.7,29.96,NNE,12,0.0,0.0,95,0.00,,SKC,0.00,0.00,VWS V14.01,2013-01-26 13:24:00,
2013-01-26 06:30:00,33.0,31.7,29.96,NNE,12,0.0,0.0,95,0.00,,SKC,0.00,0.00,VWS V14.01,2013-01-26 13:30:00,
2013-01-26 06:36:00,33.0,31.7,29.96,NNE,12,0.0,0.0,95,0.00,,SKC,0.00,0.00,VWS V14.01,2013-01-26 13:36:00,
2013-01-26 06:42:00,32.9,31.6,29.96,North,11,0.0,0.0,95,0.00,,SKC,0.00,0.00,VWS V14.01,2013-01-26 13:42:00,
2013-01-26 06:45:00,32.9,31.6,29.96,NNE,12,0.0,0.0,95,0.00,,SKC,0.00,0.00,VWS V14.01,2013-01-26 13:45:00,
2013-01-26 06:48:00,32.9,31.6,29.96,North,11,0.0,0.0,95,0.00,,SKC,0.00,0.00,VWS V14.01,2013-01-26 13:48:00,
2013-01-26 06:54:00,32.9,31.6,29.96,NNE,12,0.0,0.0,95,0.00,,SKC,0.00,0.00,VWS V14.01,2013-01-26 13:54:00,
2013-01-26 07:00:00,32.9,31.6,29.96,North,11,0.0,0.0,95,0.00,,SKC,0.00,0.00,VWS V14.01,2013-01-26 14:00:00,
2013-01-26 07:06:00,32.9,31.6,29.97,North,11,0.0,0.0,95,0.00,,SKC,0.00,0.00,VWS V14.01,2013-01-26 14:06:00,
2013-01-26 07:12:00,32.9,31.6,29.97,North,11,0.0,0.0,95,0.00,,SKC,0.00,0.00,VWS V14.01,2013-01-26 14:12:00,
2013-01-26 07:15:00,33.0,31.7,29.97,NNE,12,0.0,0.0,95,0.00,,SKC,0.00,0.00,VWS V14.01,2013-01-26 14:15:00,
2013-01-26 07:18:00,33.0,31.7,29.97,NNE,12,0.0,0.0,95,0.00,,SKC,0.00,0.00,VWS V14.01,2013-01-26 14:18:00,
2013-01-26 07:24:00,33.0,31.7,29.97,NNE,12,0.0,0.0,95,0.00,,SKC,0.00,0.00,VWS V14.01,2013-01-26 14:24:00,
2013-01-26 07:30:00,33.0,31.7,29.97,North,11,0.0,0.0,95,0.00,,SKC,0.00,0.00,VWS V14.01,2013-01-26 14:30:00,
2013-01-26 07:36:00,33.0,31.7,29.96,NNE,12,0.0,0.0,95,0.00,,SKC,0.00,7.00,VWS V14.01,2013-01-26 14:36:00,
2013-01-26 07:42:00,33.0,31.7,29.97,NNE,12,0.0,0.0,95,0.00,,SKC,0.00,11.00,VWS V14.01,2013-01-26 14:42:00,
2013-01-26 07:45:00,33.0,31.7,29.97,North,11,0.0,0.0,95,0.00,,SKC,0.00,11.00,VWS V14.01,2013-01-26 14:45:00,
2013-01-26 07:48:00,33.0,31.7,29.97,NNE,12,0.0,0.0,95,0.00,,SKC,0.00,11.00,VWS V14.01,2013-01-26 14:48:00,
2013-01-26 07:54:00,33.0,31.7,29.96,North,11,0.0,0.0,95,0.00,,SKC,0.00,12.00,VWS V14.01,2013-01-26 14:54:00,
2013-01-26 08:00:00,33.0,31.7,29.96,NNE,12,0.0,0.0,95,0.00,,SKC,0.00,12.00,VWS V14.01,2013-01-26 15:00:00,
2013-01-26 08:06:00,33.1,31.8,29.96,North,11,0.0,0.0,95,0.00,,SKC,0.00,14.00,VWS V14.01,2013-01-26 15:06:00,
2013-01-26 08:12:00,33.1,31.8,29.96,NNE,12,0.0,0.0,95,0.00,,SKC,0.00,12.00,VWS V14.01,2013-01-26 15:12:00,
2013-01-26 08:15:00,33.1,31.8,29.96,NNE,12,0.0,0.0,95,0.00,,SKC,0.00,14.00,VWS V14.01,2013-01-26 15:15:00,
2013-01-26 08:18:00,33.2,31.9,29.97,NNE,12,0.0,0.0,95,0.00,,SKC,0.00,16.00,VWS V14.01,2013-01-26 15:18:00,
2013-01-26 08:24:00,33.2,31.9,29.97,NNE,12,0.0,0.0,95,0.00,,SKC,0.00,19.00,VWS V14.01,2013-01-26 15:24:00,
2013-01-26 08:30:00,33.2,31.9,29.97,North,11,0.0,0.0,95,0.00,,SKC,0.00,25.00,VWS V14.01,2013-01-26 15:30:00,
2013-01-26 08:36:00,33.3,32.0,29.96,North,11,0.0,0.0,95,0.00,,SKC,0.00,25.00,VWS V14.01,2013-01-26 15:36:00,
2013-01-26 08:42:00,33.4,32.1,29.97,NNE,12,0.0,0.0,95,0.00,,SKC,0.00,32.00,VWS V14.01,2013-01-26 15:42:00,
2013-01-26 08:45:00,33.4,32.1,29.97,North,11,0.0,0.0,95,0.00,,SKC,0.00,39.00,VWS V14.01,2013-01-26 15:45:00,
2013-01-26 08:48:00,33.5,32.2,29.97,North,11,0.0,0.0,95,0.00,,SKC,0.00,40.00,VWS V14.01,2013-01-26 15:48:00,
2013-01-26 08:54:00,33.5,32.2,29.95,NNE,12,0.0,0.0,95,0.00,,SKC,0.00,44.00,VWS V14.01,2013-01-26 15:54:00,
2013-01-26 09:00:00,33.7,32.4,29.94,NNE,12,0.0,2.0,95,0.00,,SKC,0.00,49.00,VWS V14.01,2013-01-26 16:00:00,
2013-01-26 09:06:00,33.7,32.4,29.94,North,11,0.0,0.0,95,0.00,,SKC,0.00,54.00,VWS V14.01,2013-01-26 16:06:00,
2013-01-26 09:13:00,33.8,32.5,29.94,North,11,0.0,0.0,95,0.00,,SKC,0.00,65.00,VWS V14.01,2013-01-26 16:13:00,
2013-01-26 09:15:00,33.9,32.6,29.94,North,11,0.0,0.0,95,0.00,,SKC,0.00,72.00,VWS V14.01,2013-01-26 16:15:00,
2013-01-26 09:19:00,33.9,32.6,29.94,NNE,12,0.0,0.0,95,0.00,,SKC,0.00,77.00,VWS V14.01,2013-01-26 16:19:00,
2013-01-26 09:25:00,34.2,32.9,29.94,NNE,12,0.0,0.0,95,0.00,,SKC,0.00,98.00,VWS V14.01,2013-01-26 16:25:00,
2013-01-26 09:30:00,34.4,33.1,29.94,NNE,12,0.0,0.0,95,0.00,,SKC,0.00,102.00,VWS V14.01,2013-01-26 16:30:00,
2013-01-26 09:31:00,34.4,33.1,29.94,NNE,12,0.0,0.0,95,0.00,,SKC,0.00,102.00,VWS V14.01,2013-01-26 16:31:00,
2013-01-26 09:37:00,34.4,33.1,29.94,NNE,12,0.0,0.0,95,0.00,,SKC,0.00,107.00,VWS V14.01,2013-01-26 16:37:00,
2013-01-26 09:43:00,34.5,33.2,29.94,NNE,12,0.0,0.0,95,0.00,,SKC,0.00,118.00,VWS V14.01,2013-01-26 16:43:00,
2013-01-26 09:45:00,34.6,33.3,29.94,NNE,12,0.0,0.0,95,0.00,,SKC,0.00,120.00,VWS V14.01,2013-01-26 16:45:00,
2013-01-26 09:49:00,34.7,33.4,29.94,NNE,12,0.0,0.0,95,0.00,,SKC,0.00,125.00,VWS V14.01,2013-01-26 16:49:00,
2013-01-26 09:55:00,35.0,33.7,29.94,NNE,12,0.0,1.0,95,0.00,,SKC,0.00,137.00,VWS V14.01,2013-01-26 16:55:00,
2013-01-26 10:00:00,35.2,33.9,29.94,North,11,0.0,1.0,95,0.00,,SKC,0.00,137.00,VWS V14.01,2013-01-26 17:00:00,
2013-01-26 10:07:00,35.5,34.2,29.92,NNE,12,0.0,1.0,95,0.00,,SKC,0.00,130.00,VWS V14.01,2013-01-26 17:07:00,
2013-01-26 10:13:00,35.8,34.2,29.92,NNE,12,0.0,1.0,94,0.00,,SKC,0.00,134.00,VWS V14.01,2013-01-26 17:13:00,
2013-01-26 10:15:00,35.9,34.1,29.92,North,11,0.0,1.0,93,0.00,,SKC,0.00,134.00,VWS V14.01,2013-01-26 17:15:00,
2013-01-26 10:19:00,36.1,34.3,29.91,NNE,12,0.0,0.0,93,0.00,,SKC,0.00,139.00,VWS V14.01,2013-01-26 17:19:00,
2013-01-26 10:25:00,36.4,34.3,29.91,North,11,0.0,1.0,92,0.00,,SKC,0.00,156.00,VWS V14.01,2013-01-26 17:25:00,
2013-01-26 10:30:00,36.6,34.5,29.90,NNE,12,0.0,1.0,92,0.00,,SKC,0.00,172.00,VWS V14.01,2013-01-26 17:30:00,
2013-01-26 10:36:00,36.7,34.3,29.90,North,11,0.0,1.0,91,0.00,,SKC,0.00,197.00,VWS V14.01,2013-01-26 17:36:00,
2013-01-26 10:42:00,37.0,34.3,29.89,NNE,12,0.0,1.0,90,0.00,,SKC,0.00,221.00,VWS V14.01,2013-01-26 17:42:00,
2013-01-26 10:45:00,37.3,34.4,29.89,North,11,1.0,1.0,89,0.00,,SKC,0.00,236.00,VWS V14.01,2013-01-26 17:45:00,
2013-01-26 10:48:00,37.4,34.5,29.89,NNE,12,0.0,1.0,89,0.00,,SKC,0.00,243.00,VWS V14.01,2013-01-26 17:48:00,
2013-01-26 10:54:00,37.7,34.5,29.88,NNE,12,0.0,2.0,88,0.00,,SKC,0.00,257.00,VWS V14.01,2013-01-26 17:54:00,
2013-01-26 11:00:00,37.9,34.1,29.88,North,11,0.0,3.0,86,0.00,,SKC,0.00,297.00,VWS V14.01,2013-01-26 18:00:00,
2013-01-26 11:06:00,38.3,34.5,29.87,NNE,12,4.0,4.0,86,0.00,,SKC,0.00,309.00,VWS V14.01,2013-01-26 18:06:00,
2013-01-26 11:12:00,38.7,34.3,29.86,NNE,12,0.0,4.0,84,0.00,,SKC,0.00,359.00,VWS V14.01,2013-01-26 18:12:00,
2013-01-26 11:15:00,39.0,34.6,29.86,North,11,0.0,4.0,84,0.00,,SKC,0.00,381.00,VWS V14.01,2013-01-26 18:15:00,
2013-01-26 11:18:00,39.2,34.5,29.86,NNE,21,3.0,4.0,83,0.00,,SKC,0.00,360.00,VWS V14.01,2013-01-26 18:18:00,
2013-01-26 11:24:00,39.6,34.3,29.84,NNE,28,0.0,5.0,81,0.00,,SKC,0.00,359.00,VWS V14.01,2013-01-26 18:24:00,
2013-01-26 11:30:00,39.9,34.5,29.83,NNE,30,4.0,5.0,81,0.00,,SKC,0.00,369.00,VWS V14.01,2013-01-26 18:30:00,
2013-01-26 11:37:00,40.0,34.3,29.83,NNE,19,0.0,5.0,80,0.00,,SKC,0.00,454.00,VWS V14.01,2013-01-26 18:37:00,
2013-01-26 11:43:00,40.1,34.4,29.82,NE,42,2.0,6.0,80,0.00,,SKC,0.00,367.00,VWS V14.01,2013-01-26 18:43:00,
2013-01-26 11:45:00,40.1,34.4,29.82,NE,42,3.0,6.0,80,0.00,,SKC,0.00,378.00,VWS V14.01,2013-01-26 18:45:00,
2013-01-26 11:49:00,40.0,34.3,29.81,NE,44,6.0,6.0,80,0.00,,SKC,0.00,355.00,VWS V14.01,2013-01-26 18:49:00,
2013-01-26 11:55:00,39.8,34.1,29.80,NE,34,4.0,6.0,80,0.00,,SKC,0.00,353.00,VWS V14.01,2013-01-26 18:55:00,
2013-01-26 12:00:00,40.0,34.3,29.80,NNE,12,2.0,7.0,80,0.00,,SKC,0.00,283.00,VWS V14.01,2013-01-26 19:00:00,
2013-01-26 12:05:00,39.9,34.2,29.80,NNE,24,3.0,6.0,80,0.00,,SKC,0.00,271.00,VWS V14.01,2013-01-26 19:05:00,
2013-01-26 12:11:00,39.9,34.2,29.79,NE,52,4.0,6.0,80,0.00,,SKC,0.00,308.00,VWS V14.01,2013-01-26 19:11:00,
2013-01-26 12:15:00,39.9,34.2,29.78,NE,42,0.0,7.0,80,0.00,,SKC,0.00,260.00,VWS V14.01,2013-01-26 19:15:00,
2013-01-26 12:17:00,39.8,34.1,29.78,NE,46,5.0,5.0,80,0.00,,SKC,0.00,253.00,VWS V14.01,2013-01-26 19:17:00,
2013-01-26 12:23:00,39.9,34.2,29.78,NE,41,1.0,5.0,80,0.00,,SKC,0.00,211.00,VWS V14.01,2013-01-26 19:23:00,
2013-01-26 12:29:00,39.8,34.1,29.77,NE,43,3.0,6.0,80,0.00,,SKC,0.00,195.00,VWS V14.01,2013-01-26 19:29:00,
2013-01-26 12:30:00,39.8,34.1,29.77,NE,42,2.0,6.0,80,0.00,,SKC,0.00,190.00,VWS V14.01,2013-01-26 19:30:00,
2013-01-26 12:35:00,39.7,34.0,29.77,NNE,28,3.0,6.0,80,0.00,,SKC,0.00,192.00,VWS V14.01,2013-01-26 19:35:00,
2013-01-26 12:41:00,39.7,34.0,29.76,NNE,32,6.0,6.0,80,0.00,,SKC,0.00,204.00,VWS V14.01,2013-01-26 19:41:00,
2013-01-26 12:45:00,39.7,34.0,29.76,NNE,31,2.0,6.0,80,0.00,,SKC,0.00,183.00,VWS V14.01,2013-01-26 19:45:00,
2013-01-26 12:48:00,39.6,34.0,29.76,NE,36,1.0,6.0,80,0.00,,SKC,0.00,174.00,VWS V14.01,2013-01-26 19:48:00,
2013-01-26 12:54:00,39.6,34.0,29.75,NNE,30,4.0,6.0,80,0.00,,SKC,0.00,207.00,VWS V14.01,2013-01-26 19:54:00,
2013-01-26 13:00:00,39.7,34.4,29.75,NNE,25,0.0,6.0,81,0.00,,SKC,0.00,202.00,VWS V14.01,2013-01-26 20:00:00,
2013-01-26 13:06:00,39.8,34.1,29.75,NNE,24,7.0,7.0,80,0.00,,SKC,0.00,204.00,VWS V14.01,2013-01-26 20:06:00,
2013-01-26 13:12:00,39.9,34.2,29.74,NNE,24,1.0,7.0,80,0.00,,SKC,0.00,239.00,VWS V14.01,2013-01-26 20:12:00,
2013-01-26 13:15:00,40.2,34.5,29.73,NNE,24,3.0,7.0,80,0.00,,SKC,0.00,241.00,VWS V14.01,2013-01-26 20:15:00,
2013-01-26 13:18:00,40.3,34.3,29.73,NNE,24,0.0,3.0,79,0.00,,SKC,0.00,248.00,VWS V14.01,2013-01-26 20:18:00,
2013-01-26 13:24:00,40.4,34.1,29.72,NNE,31,3.0,5.0,78,0.00,,SKC,0.00,251.00,VWS V14.01,2013-01-26 20:24:00,
2013-01-26 13:30:00,40.6,34.3,29.72,NNE,31,1.0,5.0,78,0.00,,SKC,0.00,239.00,VWS V14.01,2013-01-26 20:30:00,
2013-01-26 13:36:00,40.9,34.6,29.71,NNE,30,3.0,5.0,78,0.00,,SKC,0.00,290.00,VWS V14.01,2013-01-26 20:36:00,
2013-01-26 13:42:00,41.1,34.5,29.71,NNE,19,3.0,6.0,77,0.00,,SKC,0.00,334.00,VWS V14.01,2013-01-26 20:42:00,
2013-01-26 13:48:00,41.6,34.6,29.69,North,11,3.0,5.0,76,0.00,,SKC,0.00,353.00,VWS V14.01,2013-01-26 20:48:00,
2013-01-26 13:54:00,42.1,34.8,29.68,NNE,26,4.0,6.0,75,0.00,,SKC,0.00,281.00,VWS V14.01,2013-01-26 20:54:00,
2013-01-26 14:00:00,42.1,34.4,29.68,NE,34,5.0,7.0,74,0.00,,SKC,0.00,232.00,VWS V14.01,2013-01-26 21:00:00,
2013-01-26 14:06:00,41.9,33.9,29.68,NNE,25,2.0,5.0,73,0.00,,SKC,0.00,211.00,VWS V14.01,2013-01-26 21:06:00,
2013-01-26 14:12:00,41.6,33.6,29.67,NNE,21,1.0,6.0,73,0.00,,SKC,0.00,221.00,VWS V14.01,2013-01-26 21:12:00,
2013-01-26 14:15:00,41.5,33.8,29.67,NNE,21,2.0,6.0,74,0.00,,SKC,0.00,209.00,VWS V14.01,2013-01-26 21:15:00,
2013-01-26 14:18:00,41.5,33.8,29.67,NNE,21,1.0,3.0,74,0.00,,SKC,0.00,185.00,VWS V14.01,2013-01-26 21:18:00,
2013-01-26 14:24:00,41.6,33.9,29.67,NNE,21,1.0,5.0,74,0.00,,SKC,0.00,158.00,VWS V14.01,2013-01-26 21:24:00,
2013-01-26 14:30:00,41.5,33.8,29.67,NNE,21,1.0,5.0,74,0.00,,SKC,0.00,125.00,VWS V14.01,2013-01-26 21:30:00,
2013-01-26 14:36:00,41.4,33.8,29.68,NNE,21,0.0,4.0,74,0.00,,SKC,0.00,141.00,VWS V14.01,2013-01-26 21:36:00,
2013-01-26 14:42:00,41.5,33.8,29.68,NNE,21,0.0,4.0,74,0.00,,SKC,0.00,155.00,VWS V14.01,2013-01-26 21:42:00,
2013-01-26 14:45:00,41.5,33.8,29.66,NNE,21,0.0,4.0,74,0.00,,SKC,0.00,156.00,VWS V14.01,2013-01-26 21:45:00,
2013-01-26 14:48:00,41.5,33.5,29.66,NNE,22,3.0,4.0,73,0.00,,SKC,0.00,160.00,VWS V14.01,2013-01-26 21:48:00,
2013-01-26 14:54:00,41.6,33.6,29.66,NNE,22,0.0,4.0,73,0.00,,SKC,0.00,130.00,VWS V14.01,2013-01-26 21:54:00,
2013-01-26 15:00:00,41.8,33.5,29.66,NNE,22,0.0,4.0,72,0.00,,SKC,0.00,118.00,VWS V14.01,2013-01-26 22:00:00,
2013-01-26 15:06:00,41.9,33.5,29.65,NNE,22,0.0,3.0,72,0.00,,SKC,0.00,97.00,VWS V14.01,2013-01-26 22:06:00,
2013-01-26 15:12:00,41.9,33.5,29.65,NNE,21,2.0,3.0,72,0.00,,SKC,0.00,93.00,VWS V14.01,2013-01-26 22:12:00,
2013-01-26 15:15:00,41.9,33.5,29.65,NNE,21,0.0,3.0,72,0.00,,SKC,0.00,91.00,VWS V14.01,2013-01-26 22:15:00,
2013-01-26 15:18:00,41.9,33.5,29.65,NNE,21,0.0,0.0,72,0.00,,SKC,0.00,91.00,VWS V14.01,2013-01-26 22:18:00,
2013-01-26 15:24:00,41.9,33.2,29.65,NNE,21,0.0,0.0,71,0.00,,SKC,0.00,77.00,VWS V14.01,2013-01-26 22:24:00,
2013-01-26 15:30:00,41.9,32.8,29.65,NNE,22,0.0,0.0,70,0.00,,SKC,0.00,74.00,VWS V14.01,2013-01-26 22:30:00,
2013-01-26 15:37:00,42.0,33.3,29.65,NNE,22,0.0,0.0,71,0.00,,SKC,0.00,70.00,VWS V14.01,2013-01-26 22:37:00,
2013-01-26 15:43:00,42.0,32.9,29.65,NNE,22,0.0,0.0,70,0.00,,SKC,0.00,63.00,VWS V14.01,2013-01-26 22:43:00,
2013-01-26 15:45:00,42.0,32.9,29.65,NNE,22,0.0,0.0,70,0.00,,SKC,0.00,56.00,VWS V14.01,2013-01-26 22:45:00,
2013-01-26 15:49:00,42.0,32.9,29.65,NNE,21,1.0,1.0,70,0.00,,SKC,0.00,51.00,VWS V14.01,2013-01-26 22:49:00,
2013-01-26 15:55:00,41.9,32.8,29.64,NNE,22,2.0,3.0,70,0.00,,SKC,0.00,44.00,VWS V14.01,2013-01-26 22:55:00,
2013-01-26 16:00:00,41.8,33.1,29.64,NNE,21,0.0,3.0,71,0.00,,SKC,0.00,35.00,VWS V14.01,2013-01-26 23:00:00,
2013-01-26 16:07:00,41.8,33.8,29.66,NNE,22,0.0,0.0,73,0.00,,SKC,0.00,33.00,VWS V14.01,2013-01-26 23:07:00,
2013-01-26 16:13:00,41.7,34.0,29.66,NNE,22,0.0,2.0,74,0.00,,SKC,0.00,32.00,VWS V14.01,2013-01-26 23:13:00,
2013-01-26 16:15:00,41.6,34.3,29.65,NNE,21,1.0,2.0,75,0.00,,SKC,0.00,26.00,VWS V14.01,2013-01-26 23:15:00,
2013-01-26 16:19:00,41.5,34.5,29.65,NNE,22,0.0,3.0,76,0.00,,SKC,0.00,19.00,VWS V14.01,2013-01-26 23:19:00,
2013-01-26 16:25:00,41.3,34.7,29.65,NNE,22,0.0,3.0,77,0.00,,SKC,0.00,16.00,VWS V14.01,2013-01-26 23:25:00,
2013-01-26 16:30:00,41.1,34.5,29.65,NNE,22,0.0,3.0,77,0.00,,SKC,0.00,14.00,VWS V14.01,2013-01-26 23:30:00,
2013-01-26 16:36:00,40.9,34.6,29.65,NNE,22,0.0,0.0,78,0.00,,SKC,0.00,12.00,VWS V14.01,2013-01-26 23:36:00,
2013-01-26 16:42:00,40.7,35.0,29.65,NNE,22,0.0,0.0,80,0.01,,SKC,0.01,12.00,VWS V14.01,2013-01-26 23:42:00,
2013-01-26 16:45:00,40.5,35.1,29.65,NNE,22,0.0,2.0,81,0.01,,SKC,0.01,9.00,VWS V14.01,2013-01-26 23:45:00,
2013-01-26 16:48:00,40.4,35.0,29.66,NNE,22,0.0,0.0,81,0.01,,SKC,0.01,7.00,VWS V14.01,2013-01-26 23:48:00,
2013-01-26 16:54:00,40.1,35.4,29.66,NNE,22,0.0,1.0,83,0.01,,SKC,0.01,5.00,VWS V14.01,2013-01-26 23:54:00,
2013-01-26 17:00:00,39.7,35.0,29.66,NNE,22,0.0,1.0,83,0.01,,SKC,0.01,5.00,VWS V14.01,2013-01-27 00:00:00,
2013-01-26 17:06:00,39.4,34.7,29.66,NNE,22,0.0,0.0,83,0.02,,SKC,0.02,0.00,VWS V14.01,2013-01-27 00:06:00,
2013-01-26 17:12:00,39.2,34.8,29.66,NNE,22,0.0,0.0,84,0.02,,SKC,0.02,0.00,VWS V14.01,2013-01-27 00:12:00,
2013-01-26 17:15:00,39.0,34.9,29.66,NNE,22,0.0,0.0,85,0.02,,SKC,0.02,0.00,VWS V14.01,2013-01-27 00:15:00,
2013-01-26 17:18:00,38.9,34.8,29.66,NNE,22,0.0,0.0,85,0.02,,SKC,0.02,0.00,VWS V14.01,2013-01-27 00:18:00,
2013-01-26 17:24:00,38.7,34.6,29.65,NNE,21,0.0,0.0,85,0.02,,SKC,0.02,0.00,VWS V14.01,2013-01-27 00:24:00,
2013-01-26 17:30:00,38.4,34.6,29.67,NNE,21,0.0,0.0,86,0.02,,SKC,0.02,0.00,VWS V14.01,2013-01-27 00:30:00,
2013-01-26 17:36:00,38.0,34.5,29.67,NNE,21,1.0,3.0,87,0.02,,SKC,0.02,0.00,VWS V14.01,2013-01-27 00:36:00,
2013-01-26 17:42:00,37.7,34.2,29.67,NNE,21,0.0,3.0,87,0.02,,SKC,0.02,0.00,VWS V14.01,2013-01-27 00:42:00,
2013-01-26 17:45:00,37.6,34.1,29.67,NNE,22,1.0,3.0,87,0.03,,SKC,0.03,0.00,VWS V14.01,2013-01-27 00:45:00,
2013-01-26 17:49:00,37.5,34.0,29.67,NNE,21,0.0,1.0,87,0.02,,SKC,0.03,0.00,VWS V14.01,2013-01-27 00:49:00,
2013-01-26 17:55:00,37.3,34.1,29.67,NNE,22,0.0,2.0,88,0.02,,SKC,0.03,0.00,VWS V14.01,2013-01-27 00:55:00,
2013-01-26 18:00:00,37.1,33.9,29.67,NNE,21,0.0,2.0,88,0.03,,SKC,0.04,0.00,VWS V14.01,2013-01-27 01:00:00,
2013-01-26 18:07:00,37.0,33.8,29.67,NNE,21,0.0,0.0,88,0.03,,SKC,0.04,0.00,VWS V14.01,2013-01-27 01:07:00,
2013-01-26 18:13:00,36.8,33.6,29.67,NNE,21,0.0,1.0,88,0.04,,SKC,0.05,0.00,VWS V14.01,2013-01-27 01:13:00,
2013-01-26 18:15:00,36.7,33.8,29.67,NNE,21,0.0,1.0,89,0.04,,SKC,0.05,0.00,VWS V14.01,2013-01-27 01:15:00,
2013-01-26 18:19:00,36.6,33.7,29.67,NNE,22,0.0,1.0,89,0.04,,SKC,0.06,0.00,VWS V14.01,2013-01-27 01:19:00,
2013-01-26 18:25:00,36.5,33.6,29.67,NNE,22,0.0,1.0,89,0.04,,SKC,0.06,0.00,VWS V14.01,2013-01-27 01:25:00,
2013-01-26 18:30:00,36.3,33.4,29.68,NNE,22,0.0,1.0,89,0.04,,SKC,0.06,0.00,VWS V14.01,2013-01-27 01:30:00,
2013-01-26 18:35:00,36.2,33.3,29.68,NNE,21,0.0,0.0,89,0.05,,SKC,0.07,0.00,VWS V14.01,2013-01-27 01:35:00,
2013-01-26 18:41:00,36.0,33.1,29.68,NNE,22,0.0,0.0,89,0.05,,SKC,0.07,0.00,VWS V14.01,2013-01-27 01:41:00,
2013-01-26 18:45:00,35.9,33.3,29.68,NNE,22,0.0,0.0,90,0.06,,SKC,0.08,0.00,VWS V14.01,2013-01-27 01:45:00,
2013-01-26 18:48:00,35.9,33.3,29.68,NNE,22,0.0,0.0,90,0.05,,SKC,0.08,0.00,VWS V14.01,2013-01-27 01:48:00,
2013-01-26 18:54:00,35.7,33.1,29.68,NNE,22,0.0,0.0,90,0.05,,SKC,0.08,0.00,VWS V14.01,2013-01-27 01:54:00,
2013-01-26 19:00:00,35.5,32.9,29.68,NNE,22,0.0,0.0,90,0.06,,SKC,0.09,0.00,VWS V14.01,2013-01-27 02:00:00,
2013-01-26 19:06:00,35.3,32.7,29.68,NNE,22,0.0,0.0,90,0.06,,SKC,0.10,0.00,VWS V14.01,2013-01-27 02:06:00,
2013-01-26 19:12:00,35.0,32.4,29.69,NNE,22,1.0,2.0,90,0.06,,SKC,0.10,0.00,VWS V14.01,2013-01-27 02:12:00,
2013-01-26 19:15:00,34.8,32.2,29.68,NNE,22,0.0,3.0,90,0.06,,SKC,0.10,0.00,VWS V14.01,2013-01-27 02:15:00,
2013-01-26 19:18:00,34.8,32.2,29.68,NNE,22,1.0,1.0,90,0.05,,SKC,0.10,0.00,VWS V14.01,2013-01-27 02:18:00,
2013-01-26 19:24:00,34.6,32.2,29.68,NNE,22,0.0,1.0,91,0.06,,SKC,0.11,0.00,VWS V14.01,2013-01-27 02:24:00,
2013-01-26 19:30:00,34.4,32.0,29.69,NNE,22,0.0,1.0,91,0.07,,SKC,0.12,0.00,VWS V14.01,2013-01-27 02:30:00,
2013-01-26 19:36:00,34.4,32.0,29.69,NNE,21,0.0,2.0,91,0.06,,SKC,0.12,0.00,VWS V14.01,2013-01-27 02:36:00,
2013-01-26 19:42:00,34.3,32.0,29.69,NNE,22,0.0,3.0,91,0.06,,SKC,0.12,0.00,VWS V14.01,2013-01-27 02:42:00,
2013-01-26 19:45:00,34.1,31.8,29.69,NNE,21,0.0,3.0,91,0.06,,SKC,0.12,0.00,VWS V14.01,2013-01-27 02:45:00,
2013-01-26 19:48:00,34.1,31.8,29.68,NNE,21,0.0,0.0,91,0.04,,SKC,0.12,0.00,VWS V14.01,2013-01-27 02:48:00,
2013-01-26 19:54:00,34.0,31.6,29.68,NNE,21,0.0,0.0,91,0.05,,SKC,0.13,0.00,VWS V14.01,2013-01-27 02:54:00,
2013-01-26 20:00:00,34.0,31.9,29.68,NNE,22,0.0,0.0,92,0.05,,SKC,0.13,0.00,VWS V14.01,2013-01-27 03:00:00,
2013-01-26 20:06:00,33.9,31.8,29.66,NNE,22,0.0,0.0,92,0.05,,SKC,0.14,0.00,VWS V14.01,2013-01-27 03:06:00,
2013-01-26 20:13:00,33.8,31.7,29.66,NNE,22,0.0,0.0,92,0.05,,SKC,0.14,0.00,VWS V14.01,2013-01-27 03:13:00,
2013-01-26 20:15:00,33.8,31.7,29.66,NNE,22,0.0,0.0,92,0.05,,SKC,0.14,0.00,VWS V14.01,2013-01-27 03:15:00,
2013-01-26 20:19:00,33.7,31.6,29.66,NNE,21,0.0,0.0,92,0.04,,SKC,0.14,0.00,VWS V14.01,2013-01-27 03:19:00,
2013-01-26 20:25:00,33.7,31.6,29.66,NNE,21,0.0,0.0,92,0.05,,SKC,0.15,0.00,VWS V14.01,2013-01-27 03:25:00,
2013-01-26 20:30:00,33.7,31.6,29.66,NNE,22,0.0,0.0,92,0.05,,SKC,0.15,0.00,VWS V14.01,2013-01-27 03:30:00,
2013-01-26 20:37:00,33.6,31.5,29.65,NNE,22,0.0,0.0,92,0.03,,SKC,0.15,0.00,VWS V14.01,2013-01-27 03:37:00,
2013-01-26 20:43:00,33.6,31.5,29.65,NNE,21,0.0,0.0,92,0.04,,SKC,0.16,0.00,VWS V14.01,2013-01-27 03:43:00,
2013-01-26 20:45:00,33.6,31.5,29.65,NNE,22,0.0,0.0,92,0.04,,SKC,0.16,0.00,VWS V14.01,2013-01-27 03:45:00,
2013-01-26 20:49:00,33.5,31.4,29.66,NNE,21,0.0,0.0,92,0.04,,SKC,0.16,0.00,VWS V14.01,2013-01-27 03:49:00,
2013-01-26 20:55:00,33.5,31.4,29.65,NNE,22,0.0,0.0,92,0.04,,SKC,0.16,0.00,VWS V14.01,2013-01-27 03:55:00,
2013-01-26 21:00:00,33.5,31.4,29.66,NNE,21,0.0,0.0,92,0.04,,SKC,0.16,0.00,VWS V14.01,2013-01-27 04:00:00,
2013-01-26 21:06:00,33.5,31.4,29.66,NNE,22,0.0,0.0,92,0.03,,SKC,0.16,0.00,VWS V14.01,2013-01-27 04:06:00,
2013-01-26 21:12:00,33.5,31.4,29.65,NNE,22,0.0,0.0,92,0.03,,SKC,0.16,0.00,VWS V14.01,2013-01-27 04:12:00,
2013-01-26 21:15:00,33.5,31.7,29.65,NNE,22,0.0,0.0,93,0.04,,SKC,0.17,0.00,VWS V14.01,2013-01-27 04:15:00,
2013-01-26 21:18:00,33.5,31.7,29.65,NNE,22,0.0,0.0,93,0.03,,SKC,0.17,0.00,VWS V14.01,2013-01-27 04:18:00,
2013-01-26 21:24:00,33.5,31.7,29.65,NNE,22,0.0,0.0,93,0.03,,SKC,0.17,0.00,VWS V14.01,2013-01-27 04:24:00,
2013-01-26 21:30:00,33.5,31.7,29.65,NNE,22,0.0,0.0,93,0.03,,SKC,0.17,0.00,VWS V14.01,2013-01-27 04:30:00,
2013-01-26 21:36:00,33.5,31.7,29.65,NNE,22,0.0,1.0,93,0.03,,SKC,0.18,0.00,VWS V14.01,2013-01-27 04:36:00,
2013-01-26 21:42:00,33.4,31.6,29.65,NNE,22,0.0,4.0,93,0.03,,SKC,0.18,0.00,VWS V14.01,2013-01-27 04:42:00,
2013-01-26 21:45:00,33.5,31.7,29.65,NNE,22,0.0,4.0,93,0.03,,SKC,0.18,0.00,VWS V14.01,2013-01-27 04:45:00,
2013-01-26 21:48:00,33.4,31.6,29.65,NNE,21,1.0,1.0,93,0.02,,SKC,0.18,0.00,VWS V14.01,2013-01-27 04:48:00,
2013-01-26 21:54:00,33.4,31.6,29.65,NNE,21,0.0,3.0,93,0.02,,SKC,0.18,0.00,VWS V14.01,2013-01-27 04:54:00,
2013-01-26 22:00:00,33.4,31.6,29.65,NNE,22,0.0,3.0,93,0.02,,SKC,0.18,0.00,VWS V14.01,2013-01-27 05:00:00,
2013-01-26 22:02:00,33.4,31.6,29.64,NNE,21,0.0,1.0,93,0.02,,SKC,0.18,0.00,VWS V14.01,2013-01-27 05:02:00,
2013-01-26 22:03:00,33.4,31.6,29.64,NNE,21,0.0,2.0,93,0.02,,SKC,0.18,0.00,VWS V14.01,2013-01-27 05:03:00,
2013-01-26 22:10:00,33.3,31.5,29.63,NNE,22,0.0,2.0,93,0.02,,SKC,0.18,0.00,VWS V14.01,2013-01-27 05:10:00,
2013-01-26 22:15:00,33.3,31.5,29.64,NNE,22,0.0,2.0,93,0.02,,SKC,0.18,0.00,VWS V14.01,2013-01-27 05:15:00,
2013-01-26 22:22:00,33.2,31.4,29.64,NNE,21,0.0,1.0,93,0.01,,SKC,0.18,0.00,VWS V14.01,2013-01-27 05:22:00,
2013-01-26 22:28:00,33.2,31.7,29.64,NNE,22,0.0,1.0,94,0.01,,SKC,0.18,0.00,VWS V14.01,2013-01-27 05:28:00,
2013-01-26 22:30:00,33.2,31.7,29.64,NNE,22,0.0,1.0,94,0.01,,SKC,0.18,0.00,VWS V14.01,2013-01-27 05:30:00,
2013-01-26 22:34:00,33.2,31.7,29.64,NNE,22,0.0,2.0,94,0.01,,SKC,0.18,0.00,VWS V14.01,2013-01-27 05:34:00,
2013-01-26 22:40:00,33.1,31.6,29.64,NNE,22,0.0,2.0,94,0.01,,SKC,0.18,0.00,VWS V14.01,2013-01-27 05:40:00,
2013-01-26 22:45:00,33.1,31.6,29.64,NNE,22,0.0,2.0,94,0.01,,SKC,0.18,0.00,VWS V14.01,2013-01-27 05:45:00,
2013-01-26 22:51:00,33.1,31.6,29.64,NNE,22,0.0,0.0,94,0.01,,SKC,0.19,0.00,VWS V14.01,2013-01-27 05:51:00,
2013-01-26 22:57:00,33.0,31.5,29.64,NNE,22,0.0,0.0,94,0.01,,SKC,0.19,0.00,VWS V14.01,2013-01-27 05:57:00,
2013-01-26 23:00:00,33.0,31.5,29.64,NNE,22,0.0,0.0,94,0.01,,SKC,0.19,0.00,VWS V14.01,2013-01-27 06:00:00,
2013-01-26 23:03:00,33.0,31.5,29.63,NNE,22,0.0,0.0,94,0.02,,SKC,0.20,0.00,VWS V14.01,2013-01-27 06:03:00,
2013-01-26 23:09:00,33.0,31.5,29.63,NNE,21,1.0,1.0,94,0.02,,SKC,0.20,0.00,VWS V14.01,2013-01-27 06:09:00,
2013-01-26 23:15:00,33.1,31.6,29.63,NNE,22,0.0,4.0,94,0.02,,SKC,0.20,0.00,VWS V14.01,2013-01-27 06:15:00,
2013-01-26 23:21:00,33.1,31.6,29.63,NNE,22,0.0,3.0,94,0.02,,SKC,0.20,0.00,VWS V14.01,2013-01-27 06:21:00,
2013-01-26 23:27:00,33.1,31.6,29.62,NNE,21,1.0,3.0,94,0.02,,SKC,0.20,0.00,VWS V14.01,2013-01-27 06:27:00,
2013-01-26 23:30:00,33.0,31.5,29.63,NNE,22,0.0,3.0,94,0.02,,SKC,0.20,0.00,VWS V14.01,2013-01-27 06:30:00,
2013-01-26 23:33:00,33.0,31.5,29.63,NNE,22,3.0,3.0,94,0.02,,SKC,0.20,0.00,VWS V14.01,2013-01-27 06:33:00,
2013-01-26 23:39:00,33.0,31.5,29.63,NNE,22,0.0,3.0,94,0.02,,SKC,0.20,0.00,VWS V14.01,2013-01-27 06:39:00,
2013-01-26 23:45:00,33.0,31.5,29.63,NNE,22,0.0,3.0,94,0.03,,SKC,0.21,0.00,VWS V14.01,2013-01-27 06:45:00,
2013-01-26 23:51:00,33.0,31.5,29.63,NNE,22,0.0,2.0,94,0.03,,SKC,0.21,0.00,VWS V14.01,2013-01-27 06:51:00,
2013-01-26 23:57:00,33.0,31.5,29.63,NNE,22,0.0,2.0,94,0.03,,SKC,0.21,0.00,VWS V14.01,2013-01-27 06:57:00,